EN

Hourly Weather Truskolasy

Today, 22 April, Thursday

Time Temperature Precipitation Wind Pressure Humidity
00:00 +8°C° 0 mm 3 mps 735 mmHg 78%
01:00 +7°C° 0 mm 3 mps 735 mmHg 81%
02:00 +5°C° 0 mm 3 mps 735 mmHg 86%
03:00 +5°C° 0 mm 2 mps 735 mmHg 90%
04:00 +5°C° 0 mm 2 mps 735 mmHg 95%
05:00 +4°C° 0.9 mm 3 mps 736 mmHg 94%
06:00 +3°C° 0.9 mm 3 mps 736 mmHg 94%
07:00 +3°C° 0.9 mm 4 mps 737 mmHg 93%
08:00 +3°C° 0.2 mm 5 mps 737 mmHg 81%
09:00 +3°C° 0.2 mm 5 mps 738 mmHg 70%
10:00 +4°C° 0.2 mm 6 mps 738 mmHg 58%
11:00 +5°C° 0 mm 6 mps 738 mmHg 52%
12:00 +7°C° 0 mm 6 mps 738 mmHg 47%
13:00 +8°C° 0 mm 6 mps 738 mmHg 41%
14:00 +8°C° 0 mm 6 mps 738 mmHg 42%
15:00 +8°C° 0 mm 6 mps 738 mmHg 43%
16:00 +6°C° 0 mm 7 mps 738 mmHg 44%
17:00 +5°C° 0 mm 6 mps 738 mmHg 50%
18:00 +5°C° 0 mm 5 mps 739 mmHg 56%
19:00 +4°C° 0 mm 4 mps 739 mmHg 63%
20:00 +3°C° 0 mm 3 mps 739 mmHg 67%
21:00 +2°C° 0 mm 3 mps 739 mmHg 72%
22:00 +2°C° 0 mm 3 mps 740 mmHg 77%
23:00 +1°C° 0 mm 3 mps 740 mmHg 80%

Tomorrow, 23 April, Friday

Time Temperature Precipitation Wind Pressure Humidity
00:00 +2°C° 0 mm 2 mps 740 mmHg 84%
01:00 +2°C° 0 mm 2 mps 740 mmHg 87%
02:00 +1°C° 0 mm 2 mps 740 mmHg 89%
03:00 0°C° 0 mm 3 mps 740 mmHg 91%
04:00 -1°C° 0 mm 3 mps 740 mmHg 94%
05:00 0°C° 0 mm 3 mps 741 mmHg 89%
06:00 0°C° 0 mm 4 mps 741 mmHg 84%
07:00 +1°C° 0 mm 5 mps 741 mmHg 79%
08:00 +3°C° 0.1 mm 5 mps 741 mmHg 71%
09:00 +4°C° 0.1 mm 6 mps 741 mmHg 63%
10:00 +5°C° 0.1 mm 6 mps 742 mmHg 55%
11:00 +5°C° 0.2 mm 7 mps 742 mmHg 56%
12:00 +5°C° 0.2 mm 7 mps 742 mmHg 58%
13:00 +5°C° 0.2 mm 8 mps 742 mmHg 60%
14:00 +5°C° 0.1 mm 8 mps 742 mmHg 63%
15:00 +4°C° 0.1 mm 7 mps 742 mmHg 66%
16:00 +3°C° 0.1 mm 7 mps 742 mmHg 69%
17:00 +3°C° 0 mm 6 mps 742 mmHg 70%
18:00 +2°C° 0 mm 5 mps 742 mmHg 71%
19:00 +3°C° 0 mm 4 mps 742 mmHg 73%
20:00 +3°C° 0 mm 3 mps 743 mmHg 71%
21:00 +2°C° 0 mm 3 mps 743 mmHg 70%
22:00 +3°C° 0 mm 2 mps 743 mmHg 68%
23:00 +2°C° 0 mm 2 mps 743 mmHg 67%

Day after tomorrow, 24 April, Saturday

Time Temperature Precipitation Wind Pressure Humidity
00:00 +2°C° 0 mm 2 mps 743 mmHg 65%
01:00 +1°C° 0 mm 3 mps 743 mmHg 64%
02:00 0°C° 0 mm 3 mps 743 mmHg 67%
03:00 0°C° 0 mm 3 mps 743 mmHg 70%
04:00 -1°C° 0 mm 3 mps 743 mmHg 74%
05:00 +1°C° 0 mm 3 mps 743 mmHg 71%
06:00 +2°C° 0 mm 3 mps 743 mmHg 69%
07:00 +3°C° 0 mm 3 mps 743 mmHg 66%
08:00 +5°C° 0 mm 4 mps 743 mmHg 57%
09:00 +6°C° 0 mm 4 mps 743 mmHg 49%
10:00 +7°C° 0 mm 4 mps 743 mmHg 40%
11:00 +7°C° 0 mm 5 mps 743 mmHg 44%
12:00 +7°C° 0 mm 5 mps 743 mmHg 48%
13:00 +8°C° 0 mm 5 mps 742 mmHg 53%
14:00 +8°C° 0.1 mm 5 mps 742 mmHg 54%
15:00 +8°C° 0.1 mm 5 mps 742 mmHg 56%
16:00 +8°C° 0.1 mm 5 mps 742 mmHg 58%
17:00 +7°C° 0 mm 5 mps 742 mmHg 63%
18:00 +6°C° 0 mm 4 mps 742 mmHg 68%
19:00 +5°C° 0 mm 3 mps 742 mmHg 73%
20:00 +4°C° 0 mm 3 mps 742 mmHg 77%
21:00 +3°C° 0 mm 3 mps 742 mmHg 80%
22:00 +3°C° 0 mm 3 mps 742 mmHg 83%
23:00 +2°C° 0 mm 3 mps 742 mmHg 86%

25 April, Sunday

Time Temperature Precipitation Wind Pressure Humidity
00:00 +2°C° 0 mm 3 mps 742 mmHg 89%
01:00 +1°C° 0 mm 3 mps 742 mmHg 91%
02:00 +1°C° 0 mm 2 mps 742 mmHg 92%
03:00 +2°C° 0 mm 1 mps 743 mmHg 93%
04:00 +1°C° 0 mm 1 mps 743 mmHg 94%
05:00 +2°C° 0 mm 1 mps 743 mmHg 88%
06:00 +2°C° 0 mm 2 mps 743 mmHg 82%
07:00 +3°C° 0 mm 2 mps 743 mmHg 76%
08:00 +4°C° 0 mm 3 mps 743 mmHg 64%
09:00 +5°C° 0 mm 4 mps 743 mmHg 52%
10:00 +6°C° 0 mm 5 mps 743 mmHg 40%
11:00 +7°C° 0 mm 5 mps 743 mmHg 38%
12:00 +7°C° 0 mm 6 mps 743 mmHg 36%
13:00 +8°C° 0 mm 6 mps 743 mmHg 35%
14:00 +8°C° 0 mm 6 mps 743 mmHg 35%
15:00 +8°C° 0 mm 6 mps 743 mmHg 36%
16:00 +7°C° 0 mm 6 mps 743 mmHg 36%
17:00 +6°C° 0 mm 5 mps 743 mmHg 42%
18:00 +5°C° 0 mm 4 mps 743 mmHg 49%
19:00 +4°C° 0 mm 3 mps 743 mmHg 55%
20:00 +4°C° 0 mm 2 mps 743 mmHg 58%
21:00 +4°C° 0 mm 2 mps 743 mmHg 61%
22:00 +4°C° 0 mm 1 mps 743 mmHg 64%
23:00 +3°C° 0 mm 1 mps 743 mmHg 65%

26 April, Monday

Time Temperature Precipitation Wind Pressure Humidity
00:00 +3°C° 0 mm 1 mps 742 mmHg 65%
01:00 +3°C° 0 mm 1 mps 742 mmHg 65%
02:00 +2°C° 0 mm 1 mps 742 mmHg 67%
03:00 +1°C° 0 mm 2 mps 742 mmHg 68%
04:00 +1°C° 0 mm 2 mps 741 mmHg 70%
05:00 +2°C° 0 mm 2 mps 741 mmHg 66%
06:00 +3°C° 0 mm 2 mps 742 mmHg 62%
07:00 +4°C° 0 mm 2 mps 742 mmHg 59%
08:00 +6°C° 0 mm 2 mps 741 mmHg 54%
09:00 +7°C° 0 mm 2 mps 741 mmHg 49%
10:00 +9°C° 0 mm 3 mps 741 mmHg 44%
11:00 +9°C° 0 mm 3 mps 741 mmHg 42%
12:00 +10°C° 0 mm 3 mps 740 mmHg 40%
13:00 +11°C° 0 mm 3 mps 740 mmHg 38%
14:00 +11°C° 0 mm 3 mps 740 mmHg 38%
15:00 +11°C° 0 mm 3 mps 739 mmHg 38%
16:00 +12°C° 0 mm 2 mps 739 mmHg 38%
17:00 +10°C° 0 mm 2 mps 739 mmHg 43%
18:00 +8°C° 0 mm 2 mps 739 mmHg 49%
19:00 +7°C° 0 mm 2 mps 738 mmHg 55%
20:00 +6°C° 0 mm 2 mps 738 mmHg 57%
21:00 +4°C° 0 mm 3 mps 738 mmHg 59%
22:00 +3°C° 0 mm 3 mps 738 mmHg 61%
23:00 +3°C° 0 mm 3 mps 738 mmHg 62%

27 April, Tuesday

Time Temperature Precipitation Wind Pressure Humidity
00:00 +3°C° 0 mm 3 mps 737 mmHg 63%
01:00 +2°C° 0 mm 3 mps 737 mmHg 64%
02:00 +2°C° 0 mm 3 mps 736 mmHg 66%
03:00 +2°C° 0 mm 3 mps 735 mmHg 68%
04:00 +2°C° 0 mm 3 mps 735 mmHg 70%
05:00 +3°C° 0 mm 4 mps 734 mmHg 68%
06:00 +4°C° 0 mm 4 mps 734 mmHg 66%
07:00 +5°C° 0 mm 4 mps 734 mmHg 64%
08:00 +7°C° 0 mm 5 mps 733 mmHg 59%
09:00 +9°C° 0 mm 5 mps 732 mmHg 53%
10:00 +12°C° 0 mm 5 mps 732 mmHg 48%
11:00 +10°C° 0.2 mm 5 mps 731 mmHg 52%
12:00 +11°C° 0.2 mm 4 mps 730 mmHg 57%
13:00 +10°C° 0.2 mm 4 mps 730 mmHg 61%
14:00 +8°C° 0.2 mm 4 mps 729 mmHg 69%
15:00 +8°C° 0.2 mm 4 mps 728 mmHg 77%
16:00 +7°C° 0.2 mm 4 mps 728 mmHg 85%
17:00 +8°C° 0.1 mm 3 mps 727 mmHg 88%
18:00 +7°C° 0.1 mm 3 mps 727 mmHg 90%
19:00 +7°C° 0.1 mm 3 mps 726 mmHg 92%
20:00 +7°C° 0.4 mm 3 mps 726 mmHg 93%
21:00 +7°C° 0.4 mm 3 mps 726 mmHg 94%
22:00 +7°C° 0.4 mm 3 mps 726 mmHg 94%
23:00 +7°C° 0.1 mm 3 mps 725 mmHg 94%
Show more

We Need Your Consent

Meteoprog and our Service Providers may store and access personal data such as cookies, device identifiers or other similar technologies on your device and process such data to personalise content and ads, as well as provide social media features and to analyse the traffic.

  • Store and/or access information on your device

    Cookies, device identifiers or other information can be stored or accessed on your device for the purposes indicated above.

  • Personalised ads and content, ad and content measurement, audience insights, and products development

    Ads and content can be personalised based on a profile. More data can be added to better personalise ads and content. Ad and content performance can be measured. Insights about the audience who saw the ads and content can be derived. Such data can be used to develop or improve user’s experience, systems and software.

By clicking ‘I Agree’ you will allow the use of indicated cookies, device identifiers, web beacons or other similar technologies. Your settings can be changed in the browser on your device.

For certain purposes, legitimate interests may be relied on, rather than consent. You can read more about this in our Privacy and Cookie Policy.